SR4DIG-13 Weather Reports


time (UTC)temp
C
wind
direction
speed
KPH
gust
KPH
rain 1hr
cm
rain 24hr
cm
rain mn
cm
humidity
%
barometer
mb
20260506143455 26 0 0.0 0.0 0.00 0.00 0.18 33 1003.6
20260506142954 26 225 0.0 0.0 0.00 0.00 0.18 32 1003.4
20260506142454 26 112 0.0 0.0 0.00 0.00 0.18 32 1003.4
20260506141953 26 0 0.0 0.0 0.00 0.00 0.18 31 1003.5
20260506141452 26 0 0.0 0.0 0.00 0.00 0.18 31 1003.4
20260506140901 26 225 19.3 0.0 0.00 0.00 0.18 31 1003.3
20260506140400 26 247 0.0 0.0 0.00 0.00 0.18 32 1003.3
20260506135859 26 225 0.0 0.0 0.00 0.00 0.23 31 1003.3
20260506135358 26 135 0.0 0.0 0.00 0.00 0.23 31 1003.3
20260506134843 26 247 6.4 0.0 0.00 0.00 0.23 30 1003.2
20260506134342 26 270 0.0 0.0 0.00 0.00 0.23 30 1003.2
20260506133841 26 202 8.0 0.0 0.00 0.00 0.23 30 1003.2
20260506133341 27 180 9.7 0.0 0.00 0.00 0.23 29 1003.3
20260506132412 27 135 0.0 0.0 0.00 0.00 0.23 30 1003.4
20260506131911 27 202 3.2 0.0 0.00 0.00 0.23 30 1003.3
20260506131410 26 180 9.7 0.0 0.00 0.00 0.23 30 1003.3
20260506130909 26 202 6.4 0.0 0.00 0.00 0.23 30 1003.4
20260506130408 26 202 6.4 0.0 0.00 0.00 0.23 30 1003.5
20260506125908 26 225 1.6 0.0 0.00 0.00 0.23 31 1003.5
20260506125407 26 225 9.7 0.0 0.00 0.00 0.23 31 1003.5
20260506124905 25 202 9.7 0.0 0.00 0.00 0.23 30 1003.7
20260506124405 25 225 6.4 0.0 0.00 0.00 0.23 30 1003.6
20260506123904 25 202 4.8 0.0 0.00 0.00 0.23 30 1003.4
20260506123403 26 225 14.5 0.0 0.00 0.00 0.23 31 1003.3
20260506122352 26 202 11.3 0.0 0.00 0.00 0.23 31 1003.5
20260506121851 26 67 0.0 0.0 0.00 0.00 0.23 34 1003.6
20260506120850 27 67 0.0 0.0 0.00 0.00 0.23 35 1003.8
20260506120349 27 67 0.0 0.0 0.00 0.00 0.23 35 1003.9
20260506115848 27 67 0.0 0.0 0.00 0.00 0.23 35 1003.9
20260506115347 26 67 0.0 0.0 0.00 0.00 0.23 37 1003.9
20260506114438 26 67 0.0 0.0 0.00 0.00 0.23 37 1004.0
20260506113937 25 67 0.0 0.0 0.00 0.00 0.23 40 1004.1
20260506113436 25 67 0.0 0.0 0.00 0.00 0.23 39 1004.1
20260506112935 24 67 0.0 0.0 0.00 0.00 0.23 40 1004.3
20260506112238 24 67 0.0 0.0 0.00 0.00 0.23 40 1004.5
20260506111737 24 67 4.8 0.0 0.00 0.00 0.23 40 1004.5
20260506111237 24 67 3.2 0.0 0.00 0.00 0.23 42 1004.6
20260506110736 23 67 0.0 0.0 0.00 0.00 0.23 44 1004.7
20260506110235 23 67 0.0 0.0 0.00 0.00 0.23 44 1004.7
20260506105734 23 67 0.0 0.0 0.00 0.00 0.23 44 1004.8
20260506105234 24 67 0.0 0.0 0.00 0.00 0.23 45 1004.8
20260506104404 24 67 0.0 0.0 0.00 0.00 0.23 45 1004.8
20260506103904 23 67 0.0 0.0 0.00 0.00 0.23 46 1005.0
20260506103402 23 67 0.0 0.0 0.00 0.00 0.23 46 1005.0
20260506102902 23 67 8.0 0.0 0.00 0.00 0.23 48 1005.1
20260506102117 23 45 0.0 0.0 0.00 0.00 0.23 48 1005.2
20260506101616 23 45 0.0 0.0 0.00 0.00 0.23 50 1005.3
20260506101115 22 45 0.0 0.0 0.00 0.00 0.23 51 1005.3
20260506100614 21 45 0.0 0.0 0.00 0.00 0.23 52 1005.4
20260506100113 21 45 0.0 0.0 0.00 0.00 0.23 52 1005.5
20260506095612 21 45 0.0 0.0 0.00 0.00 0.23 52 1005.5
20260506095112 22 45 0.0 0.0 0.00 0.00 0.23 54 1005.5
20260506094521 22 45 0.0 0.0 0.00 0.00 0.23 53 1005.5
20260506094020 22 45 0.0 0.0 0.00 0.00 0.23 53 1005.6
20260506093519 22 45 0.0 0.0 0.00 0.00 0.23 54 1005.6
20260506093018 21 45 0.0 0.0 0.00 0.00 0.23 57 1005.5
20260506091951 21 45 0.0 0.0 0.00 0.00 0.23 58 1005.7
20260506091450 21 45 0.0 0.0 0.00 0.00 0.23 57 1005.7
20260506090949 21 45 0.0 0.0 0.00 0.00 0.23 58 1005.8
20260506090448 20 45 0.0 0.0 0.00 0.00 0.23 60 1005.8
20260506085947 20 45 0.0 0.0 0.00 0.00 0.23 60 1005.8
20260506085447 20 45 0.0 0.0 0.00 0.00 0.23 61 1005.7
20260506084946 20 45 0.0 0.0 0.00 0.00 0.23 60 1005.8
20260506084445 19 45 0.0 0.0 0.00 0.00 0.23 64 1005.9
20260506083944 18 45 0.0 0.0 0.00 0.00 0.23 64 1005.9
20260506083443 18 45 0.0 0.0 0.00 0.00 0.23 64 1005.9
20260506082942 18 45 0.0 0.0 0.00 0.00 0.23 64 1006.0
20260506082441 18 45 0.0 0.0 0.00 0.00 0.23 66 1005.9
20260506081940 18 45 0.0 0.0 0.00 0.00 0.23 66 1005.9
20260506081439 17 45 0.0 0.0 0.00 0.00 0.23 66 1005.9
20260506080939 16 45 0.0 0.0 0.00 0.00 0.23 69 1005.9
20260506073355 15 45 0.0 0.0 0.00 0.00 0.23 73 1006.0
20260506072855 15 45 0.0 0.0 0.00 0.00 0.23 74 1006.1
20260506071824 15 45 4.8 0.0 0.00 0.00 0.23 75 1006.2
20260506071322 15 45 0.0 0.0 0.00 0.00 0.23 75 1006.3
20260506070822 15 45 3.2 0.0 0.00 0.00 0.23 75 1006.3
20260506070321 15 45 0.0 0.0 0.00 0.00 0.23 76 1006.4
20260506062210 12 45 0.0 0.0 0.00 0.00 0.23 81 1006.6
20260506061709 12 45 0.0 0.0 0.00 0.00 0.23 81 1006.6
20260506061208 12 45 0.0 0.0 0.00 0.00 0.23 81 1006.5
20260506060707 12 45 0.0 0.0 0.00 0.00 0.23 81 1006.6
20260506051208 11 45 0.0 0.0 0.00 0.00 0.23 82 1006.6
20260506050707 11 45 0.0 0.0 0.00 0.00 0.23 81 1006.7
20260506050205 11 45 0.0 0.0 0.00 0.00 0.23 81 1006.9
20260506045006 11 45 0.0 0.0 0.00 0.00 0.23 81 1006.8
20260506044505 11 45 0.0 0.0 0.00 0.00 0.23 81 1006.6
20260506044004 11 45 0.0 0.0 0.00 0.00 0.23 81 1006.7
20260506043503 11 45 0.0 0.0 0.00 0.00 0.23 81 1006.7
20260506043002 11 45 1.6 0.0 0.00 0.00 0.23 82 1006.7
20260506042502 10 45 0.0 0.0 0.00 0.00 0.23 82 1006.8
20260506041923 10 45 0.0 0.0 0.00 0.00 0.23 83 1006.9
20260506041422 10 45 0.0 0.0 0.00 0.00 0.23 83 1007.1
20260506040921 10 45 0.0 0.0 0.00 0.00 0.23 84 1007.1
20260506040420 10 45 0.0 0.0 0.00 0.00 0.23 84 1007.1
20260506035407 10 45 0.0 0.0 0.00 0.00 0.23 84 1007.0
20260506034906 10 45 3.2 0.0 0.00 0.00 0.23 84 1006.9
20260506034405 10 45 0.0 0.0 0.00 0.00 0.23 84 1006.8
20260506033904 10 45 0.0 0.0 0.00 0.00 0.23 84 1006.9
20260506033403 10 45 0.0 0.0 0.00 0.00 0.23 84 1007.0
20260506032402 10 45 0.0 0.0 0.00 0.00 0.23 84 1007.1
20260506031335 10 45 0.0 0.0 0.00 0.00 0.23 84 1007.1
20260506030834 10 45 0.0 0.0 0.00 0.00 0.23 84 1006.8
20260506030333 10 45 0.0 0.0 0.00 0.00 0.23 84 1006.8
20260506025832 10 45 0.0 0.0 0.00 0.00 0.23 84 1006.8
20260506025331 10 45 0.0 0.0 0.00 0.00 0.23 84 1006.8
20260506024830 10 45 0.0 0.0 0.00 0.00 0.23 84 1006.7
20260506024329 10 45 0.0 0.0 0.00 0.00 0.23 84 1006.6
20260506023828 10 45 0.0 0.0 0.00 0.00 0.23 84 1006.6
20260506023328 10 45 0.0 0.0 0.00 0.00 0.23 84 1006.6
20260506022827 10 45 0.0 0.0 0.00 0.00 0.23 83 1006.6
20260506022326 10 45 0.0 0.0 0.00 0.00 0.23 83 1006.7
20260506021531 10 45 0.0 0.0 0.00 0.00 0.23 83 1006.7
20260506021030 10 45 0.0 0.0 0.00 0.00 0.23 83 1006.7
20260506020529 10 45 0.0 0.0 0.00 0.00 0.23 83 1006.8
20260506020029 10 45 0.0 0.0 0.00 0.00 0.23 83 1006.9
20260506015528 10 45 0.0 0.0 0.00 0.00 0.23 84 1006.7
20260506014855 10 45 0.0 0.0 0.00 0.00 0.23 84 1006.9
20260506014354 11 45 1.6 0.0 0.00 0.00 0.23 84 1006.8
20260506013853 11 45 0.0 0.0 0.00 0.00 0.23 85 1006.8
20260506013352 11 45 0.0 0.0 0.00 0.00 0.23 86 1006.7
20260506012419 11 45 0.0 0.0 0.00 0.00 0.23 86 1006.6
20260506011918 11 45 0.0 0.0 0.00 0.00 0.23 86 1006.7
20260506011417 11 45 0.0 0.0 0.00 0.00 0.23 86 1006.7
20260506010916 11 45 0.0 0.0 0.00 0.00 0.23 86 1006.7
20260506010416 11 45 0.0 0.0 0.00 0.00 0.23 86 1006.8
20260506005915 11 45 0.0 0.0 0.00 0.00 0.23 86 1006.7
20260506005414 11 45 0.0 0.0 0.00 0.00 0.23 86 1006.6
20260506004821 11 45 0.0 0.0 0.00 0.00 0.23 87 1006.6
20260506004320 11 45 0.0 0.0 0.00 0.00 0.23 87 1006.6
20260506003819 11 45 0.0 0.0 0.00 0.00 0.23 87 1006.6
20260506003318 11 45 0.0 0.0 0.00 0.00 0.23 87 1006.6
20260506002423 11 45 0.0 0.0 0.00 0.00 0.23 86 1006.4
20260506001922 11 45 0.0 0.0 0.00 0.00 0.23 87 1006.5
20260506001422 11 45 0.0 0.0 0.00 0.00 0.23 87 1006.5
20260506000921 12 45 0.0 0.0 0.00 0.00 0.23 87 1006.5
20260506000342 12 45 0.0 0.0 0.00 0.00 0.23 87 1006.5
20260505235841 12 45 0.0 0.0 0.00 0.00 0.23 87 1006.5
20260505235340 12 45 0.0 0.0 0.00 0.00 0.23 87 1006.5
20260505234839 12 45 4.8 0.0 0.00 0.00 0.23 88 1006.4
20260505234339 12 45 0.0 0.0 0.00 0.00 0.23 88 1006.4
20260505233838 12 45 0.0 0.0 0.00 0.00 0.23 88 1006.4
20260505233336 12 45 0.0 0.0 0.00 0.00 0.23 88 1006.5
20260505232835 12 45 0.0 0.0 0.00 0.00 0.23 88 1006.4
20260505232335 12 45 0.0 0.0 0.00 0.00 0.23 88 1006.4
20260505231834 12 45 0.0 0.0 0.00 0.00 0.23 88 1006.3
20260505231333 12 45 0.0 0.0 0.00 0.00 0.23 88 1006.4
20260505230240 12 45 0.0 0.0 0.00 0.00 0.23 88 1006.6
20260505225739 12 45 0.0 0.0 0.00 0.00 0.23 88 1006.5
20260505225238 12 45 0.0 0.0 0.00 0.00 0.23 88 1006.7
20260505224738 13 45 0.0 0.0 0.00 0.00 0.23 87 1006.7
20260505224237 13 45 0.0 0.0 0.00 0.00 0.23 87 1006.8
20260505223736 13 45 0.0 0.0 0.00 0.00 0.23 87 1006.9
20260505223235 13 45 0.0 0.0 0.00 0.00 0.23 87 1006.9
20260505222734 13 45 0.0 0.0 0.00 0.00 0.23 87 1006.9
20260505222233 13 45 0.0 0.0 0.00 0.00 0.23 87 1006.9
20260505221732 13 45 0.0 0.0 0.00 0.00 0.23 87 1007.1
20260505221231 13 45 0.0 0.0 0.00 0.00 0.23 87 1007.2
20260505220158 13 45 0.0 0.0 0.00 0.00 0.23 87 1007.2
20260505215658 13 45 0.0 0.0 0.00 0.00 0.23 87 1007.3
20260505215157 13 45 0.0 0.0 0.00 0.00 0.23 87 1007.2
20260505214656 13 45 0.0 0.0 0.00 0.00 0.23 87 1007.1
20260505214155 13 45 0.0 0.0 0.00 0.00 0.23 87 1007.1
20260505213654 13 45 0.0 0.0 0.00 0.00 0.23 87 1007.1
20260505213153 13 45 0.0 0.0 0.00 0.00 0.23 87 1007.2
20260505212632 13 45 0.0 0.0 0.00 0.00 0.23 87 1007.1
20260505212131 13 45 0.0 0.0 0.00 0.00 0.23 87 1007.1
20260505211630 13 45 0.0 0.0 0.00 0.00 0.23 86 1007.0
20260505211130 13 45 0.0 0.0 0.00 0.00 0.23 86 1007.1
20260505210131 13 45 0.0 0.0 0.00 0.00 0.23 86 1007.1
20260505205630 13 45 0.0 0.0 0.00 0.00 0.23 86 1007.2
20260505205129 13 45 0.0 0.0 0.00 0.00 0.23 86 1007.0
20260505204628 13 45 0.0 0.0 0.00 0.00 0.23 85 1007.1
20260505204127 13 45 0.0 0.0 0.00 0.00 0.23 85 1007.1
20260505203626 13 45 0.0 0.0 0.00 0.00 0.23 85 1007.1
20260505203126 13 45 0.0 0.0 0.00 0.00 0.23 84 1007.2
20260505202531 13 45 0.0 0.0 0.00 0.00 0.23 84 1007.2
20260505202030 13 45 0.0 0.0 0.00 0.00 0.23 84 1007.2
20260505201529 13 45 0.0 0.0 0.00 0.00 0.23 84 1007.2
20260505201028 14 45 0.0 0.0 0.00 0.00 0.23 83 1007.2
20260505195957 14 45 0.0 0.0 0.00 0.00 0.23 84 1007.1
20260505195456 14 45 0.0 0.0 0.00 0.00 0.23 83 1007.0
20260505194955 14 45 0.0 0.0 0.00 0.00 0.23 84 1007.0
20260505194647 14 45 0.0 0.0 0.00 0.00 0.23 84 1006.9
20260505194454 14 45 0.0 0.0 0.00 0.00 0.23 84 1006.9
20260505193954 14 45 0.0 0.0 0.00 0.00 0.23 84 1006.9
20260505193453 14 45 0.0 0.0 0.00 0.00 0.23 84 1006.8
20260505192411 15 45 0.0 0.0 0.00 0.00 0.23 84 1006.8
20260505191910 15 45 0.0 0.0 0.00 0.00 0.23 84 1006.8
20260505191410 15 45 0.0 0.0 0.00 0.00 0.23 84 1006.9
20260505190908 15 45 0.0 0.0 0.00 0.00 0.23 84 1006.8
20260505190407 15 45 0.0 0.0 0.00 0.00 0.23 83 1006.8
20260505185906 15 45 0.0 0.0 0.00 0.00 0.23 83 1006.8
20260505185405 15 45 0.0 0.0 0.00 0.00 0.23 83 1006.9
20260505184905 15 45 0.0 0.0 0.00 0.00 0.23 82 1006.7
20260505183842 15 45 0.0 0.0 0.00 0.00 0.23 82 1006.7
20260505183341 15 45 0.0 0.0 0.00 0.00 0.23 82 1006.7
20260505182840 15 45 0.0 0.0 0.00 0.00 0.23 82 1006.6
20260505182339 15 45 0.0 0.0 0.00 0.00 0.23 82 1006.7
20260505181838 16 45 0.0 0.0 0.00 0.00 0.23 82 1006.6
20260505181338 16 45 0.0 0.0 0.00 0.00 0.23 81 1006.6
20260505180837 16 45 0.0 0.0 0.00 0.00 0.23 81 1006.6
20260505180335 16 45 0.0 0.0 0.00 0.00 0.23 81 1006.7
20260505175835 16 45 0.0 0.0 0.00 0.00 0.23 81 1006.7
20260505175334 16 45 0.0 0.0 0.00 0.00 0.23 81 1006.6
20260505174833 16 45 0.0 0.0 0.00 0.00 0.23 80 1006.6
20260505174332 16 45 0.0 0.0 0.00 0.00 0.23 80 1006.4
20260505173831 16 45 0.0 0.0 0.00 0.00 0.23 80 1006.4
20260505173330 16 45 0.0 0.0 0.00 0.00 0.23 80 1006.5
20260505172829 16 45 0.0 0.0 0.00 0.00 0.23 80 1006.4
20260505172329 16 45 0.0 0.0 0.00 0.00 0.23 80 1006.4
20260505171828 16 45 0.0 0.0 0.00 0.00 0.23 80 1006.4
20260505171327 16 45 0.0 0.0 0.00 0.00 0.23 79 1006.4
20260505170826 16 45 0.0 0.0 0.00 0.00 0.23 79 1006.3
20260505170325 16 45 0.0 0.0 0.00 0.00 0.23 79 1006.4
20260505165824 16 45 0.0 0.0 0.00 0.00 0.23 79 1006.4
20260505165323 16 45 0.0 0.0 0.00 0.00 0.23 79 1006.3
20260505164822 16 45 0.0 0.0 0.00 0.00 0.23 78 1006.3
20260505163805 16 45 0.0 0.0 0.00 0.00 0.23 78 1006.4
20260505163305 16 45 0.0 0.0 0.00 0.00 0.23 78 1006.4
20260505162804 16 45 0.0 0.0 0.00 0.00 0.23 78 1006.5
20260505162306 16 45 0.0 0.0 0.00 0.00 0.23 78 1006.7
20260505161802 16 45 0.0 0.0 0.00 0.00 0.23 78 1006.6
20260505161301 16 45 3.2 0.0 0.00 0.00 0.23 78 1006.6
20260505160801 16 45 0.0 0.0 0.00 0.00 0.23 78 1006.6
20260505160204 16 45 0.0 0.0 0.00 0.00 0.23 78 1006.6
20260505153141 17 45 3.2 0.0 0.00 0.00 0.23 77 1006.9
20260505152640 17 45 0.0 0.0 0.00 0.00 0.23 77 1007.0
20260505152139 17 45 3.2 0.0 0.00 0.00 0.23 76 1007.3
20260505151638 17 45 0.0 0.0 0.00 0.00 0.23 76 1007.3
20260505151137 17 45 0.0 0.0 0.00 0.00 0.23 73 1007.9
20260505150637 18 45 0.0 0.0 0.00 0.00 0.05 67 1006.8